Location: Haieshausen
(51.8387°N, 9.9720°E)
Time: 03:44:05
(UTC+00:00)

Meteor 1-29 - Pass Details

Date: 14 July 2020
Orbit: 440 x 459 km, 97.7° (Epoch: 10 August)

Event Time Altitude Azimuth Distance (km) Brightness Sun altitude
Rises 00:53:21 0° 8° (N) 2,465 8.3 -14.1°
Reaches altitude 10° 00:55:27 10° 1° (N) 1,591 6.8 -14.0°
Maximum altitude 00:58:39 40° 291° (WNW) 681 3.8 -13.8°
Enters shadow 01:00:26 22° 233° (SW) 1,047 4.2 -13.7°
